Historique des stations

Retrouvez les conditions météo en temps réel en cliquant ici...

Station météo de Le Mesnil-Thomas

Altitude de la station : 196 m







Données météorologiques pour le 20/10/2020
Date
Heure
Températures Humidité Point de rosée Vitesse
du vent
Direction Rafales Windchill Pression Pluviométrie
Cumul
Date
Heure
Températures Humidité Point de rosée Vitesse
du vent
Direction Rafales Windchill Pression Pluviométrie
Cumul
20/10/2020 19:5913.2 °C94 %12.2 °C10 km/hESE29 km/h12.8 1007 hPa0.8 mm
20/10/2020 19:4413.3 °C94 %12.2 °C11 km/hESE29 km/h12.2 1007 hPa0.8 mm
20/10/2020 19:2913.3 °C94 %12.2 °C13 km/hENE29 km/h12.8 1007 hPa0.8 mm
20/10/2020 19:1413.5 °C93 %12.2 °C11 km/hE29 km/h12.8 1007 hPa0.6 mm
20/10/2020 18:5913.6 °C93 %12.2 °C10 km/hESE29 km/h12.2 1007 hPa0.6 mm
20/10/2020 18:4413.7 °C93 %12.8 °C14 km/hSE29 km/h12.8 1007 hPa0.6 mm
20/10/2020 18:2913.7 °C93 %12.8 °C13 km/hE29 km/h12.8 1007 hPa0.6 mm
20/10/2020 18:1413.9 °C92 %12.8 °C11 km/hESE29 km/h12.8 1007 hPa0.4 mm
20/10/2020 17:5814.1 °C91 %12.8 °C14 km/hESE29 km/h12.8 1007 hPa0.2 mm
20/10/2020 17:4414.3 °C90 %12.8 °C16 km/hESE29 km/h12.8 1007 hPa0.2 mm
20/10/2020 17:2814.7 °C89 %12.8 °C13 km/hSSE26 km/h13.3 1008 hPa0.2 mm
20/10/2020 17:1414.7 °C89 %12.8 °C14 km/hSE26 km/h13.9 1008 hPa0.2 mm
20/10/2020 16:5914.8 °C89 %12.8 °C18 km/hESE26 km/h13.3 1008 hPa0.2 mm
20/10/2020 16:4515.0 °C88 %12.8 °C13 km/hESE26 km/h13.9 1008 hPa0.2 mm
20/10/2020 16:2815.2 °C88 %13.3 °C11 km/hE26 km/h14.4 1008 hPa0.2 mm
20/10/2020 16:1415.2 °C88 %13.3 °C11 km/hESE26 km/h14.4 1008 hPa0.2 mm
20/10/2020 15:5915.1 °C87 %12.8 °C11 km/hESE26 km/h14.4 1008 hPa0.2 mm
20/10/2020 15:4414.8 °C87 %12.8 °C16 km/hESE24 km/h14.4 1008 hPa0.2 mm
20/10/2020 15:2914.8 °C87 %12.8 °C8 km/hESE24 km/h14.4 1008 hPa0.2 mm
20/10/2020 15:1414.7 °C87 %12.8 °C10 km/hESE24 km/h13.9 1008 hPa0.2 mm
20/10/2020 14:5914.7 °C87 %12.8 °C8 km/hESE24 km/h14.4 1008 hPa0.2 mm
20/10/2020 14:4414.5 °C88 %12.8 °C13 km/hESE24 km/h13.3 1008 hPa0.2 mm
20/10/2020 14:2914.2 °C89 %12.2 °C16 km/hESE24 km/h13.3 1008 hPa0.2 mm
20/10/2020 14:1414.1 °C89 %12.2 °C8 km/hESE24 km/h13.3 1009 hPa0.2 mm
20/10/2020 13:5913.9 °C89 %12.2 °C14 km/hESE24 km/h13.3 1009 hPa0.2 mm
20/10/2020 13:4413.9 °C88 %12.2 °C14 km/hE19 km/h13.3 1009 hPa0.2 mm
20/10/2020 13:2813.7 °C87 %11.7 °C10 km/hESE19 km/h13.3 1009 hPa0.2 mm
20/10/2020 13:1513.4 °C87 %11.1 °C11 km/hSE19 km/h12.8 1009 hPa0.2 mm
20/10/2020 12:5913.2 °C88 %11.1 °C10 km/hESE19 km/h12.8 1009 hPa0.2 mm
20/10/2020 12:4413.1 °C88 %11.1 °C6 km/hE19 km/h12.2 1009 hPa0.2 mm
20/10/2020 12:2913.0 °C88 %11.1 °C13 km/hESE19 km/h12.8 1009 hPa0.2 mm
20/10/2020 12:1413.2 °C88 %11.1 °C8 km/hE19 km/h12.8 1009 hPa0.2 mm
20/10/2020 11:5913.2 °C88 %11.1 °C10 km/hESE19 km/h12.2 1009 hPa0.2 mm
20/10/2020 11:4413.2 °C87 %11.1 °C10 km/hESE19 km/h12.8 1009 hPa0.2 mm
20/10/2020 11:2913.0 °C88 %11.1 °C8 km/hE19 km/h12.8 1009 hPa0.2 mm
20/10/2020 11:1412.8 °C88 %11.1 °C6 km/hESE19 km/h12.8 1009 hPa0.2 mm
20/10/2020 11:0012.9 °C88 %11.1 °C5 km/hESE19 km/h12.8 1009 hPa0.2 mm
20/10/2020 10:4413.1 °C88 %11.1 °C5 km/hESE19 km/h13.3 1009 hPa0.2 mm
20/10/2020 10:2913.0 °C88 %11.1 °C6 km/hE19 km/h12.8 1009 hPa0.2 mm
20/10/2020 10:1412.8 °C88 %11.1 °C6 km/hESE19 km/h12.8 1009 hPa0.2 mm
20/10/2020 09:5912.7 °C88 %10.6 °C6 km/hESE19 km/h12.2 1009 hPa0.2 mm
20/10/2020 09:4412.6 °C88 %10.6 °C11 km/hSSE19 km/h11.7 1009 hPa0.2 mm
20/10/2020 09:2812.3 °C89 %10.6 °C8 km/hESE18 km/h11.7 1009 hPa0.2 mm
20/10/2020 09:1412.0 °C90 %10.6 °C5 km/hESE18 km/h12.2 1009 hPa0.2 mm
20/10/2020 08:5912.0 °C90 %10.6 °C5 km/hESE18 km/h12.2 1008 hPa0.2 mm
20/10/2020 08:4411.8 °C90 %10.0 °C5 km/hESE18 km/h11.7 1008 hPa0.2 mm
20/10/2020 08:2911.7 °C90 %10.0 °C5 km/hESE18 km/h10.6 1008 hPa0.2 mm
20/10/2020 08:1411.6 °C91 %10.0 °C8 km/hSE18 km/h11.1 1008 hPa0.2 mm
20/10/2020 07:5911.4 °C91 %10.0 °C6 km/hESE18 km/h10.6 1008 hPa0.2 mm
20/10/2020 07:4410.8 °C93 %9.4 °C6 km/hESE18 km/h10.0 1008 hPa0.2 mm
20/10/2020 07:309.6 °C94 %8.9 °C6 km/hE18 km/h9.4 1008 hPa0.2 mm
20/10/2020 07:149.0 °C93 %7.8 °C-ESE18 km/h8.9 1008 hPa0.2 mm
20/10/2020 06:598.9 °C93 %7.8 °C2 km/hESE18 km/h8.9 1008 hPa0.2 mm
20/10/2020 06:449.0 °C93 %7.8 °C2 km/hESE18 km/h8.9 1008 hPa0.2 mm
20/10/2020 06:299.1 °C93 %7.8 °C5 km/hESE18 km/h8.9 1008 hPa0.2 mm
20/10/2020 06:149.0 °C92 %7.8 °C6 km/hE18 km/h8.9 1008 hPa0.2 mm
20/10/2020 05:598.9 °C92 %7.8 °C5 km/hE18 km/h8.9 1008 hPa-
20/10/2020 05:448.9 °C91 %7.8 °C2 km/hESE18 km/h8.9 1008 hPa-
20/10/2020 05:299.0 °C91 %7.8 °C2 km/hESE18 km/h8.9 1009 hPa-
20/10/2020 05:149.0 °C91 %7.8 °C6 km/hE18 km/h8.9 1008 hPa-
20/10/2020 04:599.1 °C90 %7.8 °C3 km/hE18 km/h8.9 1009 hPa-
20/10/2020 04:449.2 °C90 %7.8 °C2 km/hESE18 km/h8.3 1008 hPa-
20/10/2020 04:288.6 °C90 %7.2 °C5 km/hSE18 km/h8.3 1009 hPa-
20/10/2020 04:148.4 °C90 %6.7 °C10 km/hESE18 km/h7.2 1009 hPa-
20/10/2020 03:598.4 °C89 %6.7 °C13 km/hESE18 km/h7.2 1009 hPa-
20/10/2020 03:448.6 °C89 %6.7 °C8 km/hESE18 km/h7.8 1009 hPa-
20/10/2020 03:298.4 °C89 %6.7 °C6 km/hE18 km/h7.2 1010 hPa-
20/10/2020 03:148.6 °C88 %6.7 °C8 km/hE14 km/h7.2 1009 hPa-
20/10/2020 02:598.7 °C88 %6.7 °C8 km/hESE14 km/h7.2 1010 hPa-
20/10/2020 02:448.7 °C88 %6.7 °C3 km/hESE14 km/h7.8 1010 hPa-
20/10/2020 02:308.6 °C88 %6.7 °C5 km/hESE14 km/h7.8 1010 hPa-
20/10/2020 02:148.5 °C88 %6.7 °C6 km/hESE13 km/h7.2 1010 hPa-
20/10/2020 01:598.4 °C88 %6.7 °C6 km/hESE13 km/h7.8 1010 hPa-
20/10/2020 01:448.4 °C87 %6.1 °C5 km/hESE13 km/h7.8 1010 hPa-
20/10/2020 01:298.5 °C86 %6.1 °C8 km/hESE13 km/h8.3 1010 hPa-
20/10/2020 01:148.6 °C86 %6.1 °C2 km/hE13 km/h8.3 1010 hPa-
20/10/2020 00:598.7 °C85 %6.1 °C3 km/hESE13 km/h8.9 1010 hPa-
20/10/2020 00:449.1 °C84 %6.7 °C2 km/hESE13 km/h8.3 1010 hPa-
20/10/2020 00:289.2 °C83 %6.7 °C6 km/hESE11 km/h8.3 1011 hPa-
20/10/2020 00:149.3 °C83 %6.7 °C5 km/hE11 km/h8.3 1011 hPa-


Minima :

Température : 8.4 °C
Humidité : 83 %
Point de rosée : 6.1 °C
Vent moyen : 2 km/h
Windchill : 7.2
Pression atm. : 1007 hPa
Maxima :

Température : 15.2 °C
Humidité : 94 %
Point de rosée : 13.3 °C
Vent moyen : 18 km/h
Windchill : 14.4
Pression atm. : 1011 hPa
Rafales max : 29 km/h
Cumul de pluie sur 24H : 0.8 mm

Le Mesnil-Thomas est une commune du département Eure-et-Loir (28).
La station météorologique du réseau de l'association la plus proche de Le Mesnil-Thomas est celle de Digny



Icône Facebook Association Météo Centre Icône Twitter Association Météo Centre Icône Chaîne Youtube Association Météo Centre Icône contact Association Météo Centre Icône Insta Association Météo Centre